This is the latest recevied weather packets stored in our database for station/object K7NDG. If no packets are shown the sender has not sent any weather packets the latest 1 day(s).
| Time | Temp. | Humidity | Pressure | Rain* | Wind** | Luminosity | Snow |
|---|---|---|---|---|---|---|---|
| 1778005851 | 14.44° C | 79% | 1017.3 hPa | 0 mm | 0 m/s | 154 W/m² | - |
| 1778005547 | 14.44° C | 80% | 1017.3 hPa | 0 mm | 0.45 m/s, 258° | 143 W/m² | - |
| 1778005244 | 14.44° C | 80% | 1017.5 hPa | 0 mm | 0 m/s | 103 W/m² | - |
| 1778004941 | 14.44° C | 81% | 1017.5 hPa | 0 mm | 0 m/s | 84 W/m² | - |
| 1778004638 | 14.44° C | 81% | 1017.4 hPa | 0 mm | 0 m/s | 77 W/m² | - |
| 1778004333 | 14.44° C | 81% | 1017.3 hPa | 0 mm | 0 m/s | 70 W/m² | - |
| 1778004032 | 14.44° C | 81% | 1017.2 hPa | 0 mm | 0 m/s | 57 W/m² | - |
| 1778003732 | 14.44° C | 81% | 1017.5 hPa | 0 mm | 0 m/s | 67 W/m² | - |
| 1778003429 | 14.44° C | 82% | 1017.2 hPa | 0 mm | 0 m/s | 79 W/m² | - |
| 1778003126 | 14.44° C | 82% | 1017.3 hPa | 0 mm | 0 m/s | 91 W/m² | - |
| 1778002822 | 13.89° C | 82% | 1017.1 hPa | 0 mm | 0 m/s | 91 W/m² | - |
| 1778002519 | 13.89° C | 82% | 1017.2 hPa | 0 mm | 0 m/s | 73 W/m² | - |
| 1778002216 | 13.89° C | 82% | 1017.1 hPa | 0 mm | 0 m/s | 54 W/m² | - |
| 1778001914 | 13.89° C | 81% | 1017.1 hPa | 0 mm | 0 m/s | 53 W/m² | - |
| 1778001609 | 14.44° C | 81% | 1017 hPa | 0 mm | 0 m/s | 55 W/m² | - |
| 1778001305 | 13.89° C | 81% | 1017 hPa | 0 mm | 0 m/s | 61 W/m² | - |
| 1778001002 | 13.89° C | 81% | 1017.1 hPa | 0 mm | 0 m/s | 57 W/m² | - |
| 1778000699 | 13.89° C | 81% | 1017 hPa | 0 mm | 0 m/s | 59 W/m² | - |
| 1778000394 | 13.89° C | 81% | 1016.8 hPa | 0 mm | 0 m/s | 61 W/m² | - |
| 1778000090 | 13.89° C | 81% | 1017 hPa | 0 mm | 0 m/s | 61 W/m² | - |
| 1777999786 | 14.44° C | 81% | 1016.9 hPa | 0 mm | 0 m/s | 56 W/m² | - |
| 1777999482 | 13.89° C | 80% | 1016.8 hPa | 0 mm | 0 m/s | 53 W/m² | - |
| 1777999180 | 14.44° C | 80% | 1016.7 hPa | 0 mm | 0.89 m/s, 252° | 55 W/m² | - |
| 1777998879 | 14.44° C | 79% | 1017 hPa | 0 mm | 0 m/s | 49 W/m² | - |
| 1777998578 | 14.44° C | 80% | 1016.8 hPa | 0 mm | 0 m/s | 51 W/m² | - |
* Rain latest hour (hover to see other rain measurements)
** Current wind speed in m/s (hover to see current wind gust speed)